Regional Weather Roundup
Issued by NWS Tiyan, Guam

Home | Current Version | Previous Version | Text Only | Print | Product List | Glossary On
Versions: 1 2 3 4 5 6 7 8 9 10 11 12 13 14 15 16 17 18 19 20 21 22 23 24 25 26 27 28 29 30 31 32 33 34 35 36 37 38 39 40 41 42 43 44 45 46 47 48 49 50
000
ASGM40 PGUM 232310
RWRGUM
WEATHER ROUNDUP FOR THE MARIANAS
NATIONAL WEATHER SERVICE TIYAN GU
900 AM CHST TUE APR 24 2018

GUZ001>004-240000-
MARIANA ISLANDS-

CITY           SKY/WX    TMP DP  RH WIND       PRES   REMARKS
GUAM AIRPORT   PTSUNNY   88  77  70 NE15      29.85S HX 100
ANDERSEN AFB   MOSUNNY   84  77  79 NE15      29.86R HX  94
ROTA AIRPORT   MOSUNNY   81  75  83 NE14      29.85R
TINIAN AP      MOSUNNY   82  75  78 NE14      29.83S
SAIPAN AP      PTSUNNY   84  81  89 E15       29.84S HX  98

$$




USA.gov is the U.S. government's official web portal to all federal, state and local government web resources and services.